Simultaneous Nadir Overpasses (SNOs) Predictions

Prediction of SNOs between GOES-16 and NOAA-20 Satellite Orbit:

Table of predicted SNOs for the next 14.0 days since TLE Epoch: 3/20/2021
Index Date Time (GOES-16) GOES-16 Lat,Lon NOAA-20 Lat,Lon Distance(km) Time Diff (sec)
1 03/20/2021 06:23:19 -0.05, -75.21 -0.15, -74.90 36.22 80
2 03/22/2021 18:26:32 0.04, -75.20 -0.05, -75.68 53.84 80
3 03/23/2021 18:10:27 0.04, -75.20 0.94, -71.14 462.42 80
4 03/25/2021 06:32:16 -0.03, -75.21 0.27, -76.41 137.50 80
5 03/26/2021 06:10:52 -0.03, -75.22 -0.78, -71.89 378.86 80
6 03/27/2021 18:32:49 0.02, -75.22 -0.40, -77.21 226.21 80
7 03/28/2021 18:16:45 0.02, -75.22 0.59, -72.67 290.65 80
8 03/30/2021 06:38:33 -0.02, -75.25 0.61, -77.94 308.07 80
9 03/31/2021 06:17:10 -0.02, -75.26 -0.44, -73.42 208.72 80
10 04/01/2021 18:39:07 0.02, -75.26 -0.73, -78.74 396.11 80
11 04/02/2021 18:23:03 0.02, -75.27 0.26, -74.21 121.08 80
